Погода в Факатане

Новая Зеландия     37°57′06″S   176°59′43″E
темп.,
°C
ветер,
м/с
пор.,
м/с
влажн.,
%
обл.,
%
осадки,
мм/ч
давл.,
гПа
погр.,
м
12 августа, пт
пт1200:00+6ююз37767 0.0 1019360
03:00+5ююз24845 0.0 1018136
06:00+5ююз368617 0.0 1019141
09:00+10ю4866100 0.0 10201262
12:00+12ю465466 0.0 10191444
15:00+13ю354989 0.0 10181906
18:00+8ю37713 0.0 1019415
21:00+5ююз34860 0.0 102297
13 августа, сб
сб1300:00+4ю35891 0.0 1022124
03:00+3ююз34884 0.0 1023109
06:00+2ююз35885 0.0 1023112
09:00+6ююз24686 0.0 1025216
12:00+13зюз12370 0.0 10241020
15:00+13ссз33410 0.0 1023749
18:00+8зсз12710 0.0 1024129
21:00+5ююв23820 0.0 1027113
14 августа, вс
вс1400:00+4ю23846 0.0 102898
03:00+3ююз23840 0.0 102989
06:00+3ююз23860 0.0 102985
09:00+7ю23650 0.0 1030178
12:00+13сз22480 0.0 1029743
15:00+12ссз33550 0.0 1027644
18:00+8сз12810 0.0 1028191
21:00+6ююз229215 0.0 102994
15 августа, пн
пн1500:00+5ююз229318 0.0 102972
03:00+4ююз229413 0.0 102979
06:00+4ююз229323 0.0 103075
09:00+8ю127985 0.0 1031164
12:00+12с1260100 0.0 1030682
15:00+12ссв2362100 0.0 1029538
18:00+9всв1182100 0.0 102989
21:00+10вюв1381100 0.0 1030195
16 августа, вт
вт1600:00+11с2584100 0.1 1029326
03:00+12с3987100 0.3 1029468
06:00+13с4108597 0.5 1028668
09:00+14с51087100 0.6 1029878
12:00+15с51186100 1.6 10291061
15:00+15с61187100 1.1 10261002
18:00+14ссв61291100 1.9 1026887
21:00+14с71391100 1.0 1027961